[[{"header":{"parameterUnit":"m.s-1","parameterCategory":1,"la1":30.2991,"la2":30.254,"lo1":-89.0895,"lo2":-89.0444,"dx":0.0017,"dy":0.0017,"nx":28,"ny":28,"refTime":"2023-02-12T09:00:00:Z","depth":0,"parameterNumber":2,"parameterNumberName":"U-component_of_WINDS"},"data":[0,0,0,0,0,0,0,0,0,0,0,0,0,0,0,0,0,0,0,0,0,0,0,0,0,0,0,0,0,0,0,0,0,0,0,0,0,0,0,0,0,0,0,0,0,0,0,0,0,0,0,0,0,0,0,0,0,0,1.5134,1.5136,0,1.5266,1.5268,1.5269,1.5299,1.5298,1.5297,1.5296,1.5431,1.5435,1.544,0,0,0,0,0,0,0,0,0,0,0,0,0,1.4906,1.491,1.5134,1.5136,1.5138,1.5266,1.5268,1.527,1.5299,1.5298,1.5297,1.5296,1.543,1.5435,1.544,0,0,0,0,0,0,0,0,0,0,0,0,0,1.5018,1.4911,1.5134,1.5168,1.5172,1.5266,1.5268,1.527,1.5299,1.5298,1.5296,1.5295,1.5428,1.5434,1.5441,1.551,0,0,1.5461,1.5464,0,0,0,0,0,0,0,0,1.5012,1.5027,1.5161,1.5165,1.5171,1.5265,1.5237,1.5351,1.53,1.5251,1.5296,1.5294,1.5377,1.5388,1.5416,1.5517,1.5523,1.5462,1.5466,1.5469,1.5471,0,0,0,0,0,0,0,1.5004,1.5021,1.5187,1.5163,1.5169,1.5176,1.519,1.5259,1.532,1.5255,1.5258,1.5273,1.5379,1.5409,1.5419,1.5525,1.5462,1.5468,1.5472,1.5475,1.5688,1.5689,0,0,0,0,0,0,1.499,1.5014,1.5182,1.519,1.5086,1.5181,1.5197,1.5236,1.5319,1.5331,1.5274,1.5274,1.5398,1.5411,1.5424,1.5509,1.5469,1.5475,1.5479,1.5686,1.5688,1.569,0,0,0,0,0,0,1.4985,1.5005,1.5177,1.5103,1.5126,1.5186,1.523,1.5239,1.5269,1.5334,1.5345,1.5293,1.5398,1.5414,1.5488,1.5514,1.5478,1.5484,1.5684,1.5687,1.5689,1.5682,0,0,0,0,0,0,1.4979,1.5003,1.5031,1.5104,1.5129,1.524,1.5231,1.5243,1.5281,1.5282,1.5355,1.5365,1.5398,1.5478,1.5495,1.5523,1.549,1.5682,1.5685,1.5688,1.568,1.5684,1.5687,0,0,0,0,0,1.497,1.5023,1.5032,1.5052,1.5165,1.5241,1.5256,1.5292,1.5283,1.531,1.5352,1.5363,1.5509,1.5485,1.5505,1.5535,1.5681,1.5685,1.5688,1.5678,1.5683,1.5687,0,0,0,0,0,0,1.4952,1.5034,1.5044,1.5122,1.5174,1.5246,1.5282,1.5296,1.5352,1.5351,1.5393,1.541,1.5481,1.5516,1.5488,1.5606,1.5594,1.5602,1.558,1.5585,1.5589,1.5578,1.5495,0,0,0,0,0,1.4957,1.5012,1.5081,1.5143,1.5169,1.5221,1.5255,1.5279,1.5335,1.5357,1.5404,1.5457,1.5515,1.5552,1.5609,1.5685,1.5701,1.5716,1.5719,1.5722,1.5727,1.5769,1.5776,1.5702,1.5702,1.5702,0,0,1.4968,1.5019,1.5052,1.5141,1.5184,1.524,1.5239,1.5299,1.534,1.5366,1.5438,1.5474,1.5537,1.5612,1.5647,1.5643,1.5751,1.5726,1.5728,1.5732,1.5773,1.578,1.5786,1.5705,1.5704,1.5704,0,0,1.5016,1.5061,1.5117,1.5161,1.5226,1.526,1.5273,1.5343,1.5368,1.5441,1.5461,1.5511,1.561,1.5654,1.5689,1.5752,1.5764,1.5769,1.5787,1.5827,1.5832,1.5838,1.5859,1.5866,1.5775,1.5775,1.5775,0,1.5021,1.5106,1.5144,1.5203,1.524,1.5266,1.5323,1.5363,1.5444,1.5469,1.5463,1.5587,1.5632,1.5716,1.5731,1.5759,1.5775,1.5761,1.5829,1.5834,1.584,1.586,1.5868,1.5775,1.5775,1.5775,1.5775,0,1.5108,1.5167,1.5205,1.5281,1.5324,1.5381,1.5427,1.5465,1.5485,1.5519,1.5593,1.5646,1.5714,1.5736,1.5756,1.5823,1.5818,1.582,1.5809,1.5846,1.5866,1.5875,1.5775,1.5775,1.5775,1.5775,0,0,1.5148,1.5245,1.5258,1.5293,1.5366,1.5412,1.547,1.5536,1.5567,1.5622,1.5671,1.5753,1.5755,1.5795,1.582,1.5855,1.59,1.5853,1.5855,1.5858,1.5975,1.5972,1.5981,1.5909,1.591,1.5912,1.5969,0,1.5204,1.5308,1.5344,1.543,1.5484,1.5509,1.5559,1.5609,1.5643,1.5693,1.573,1.5788,1.5787,1.581,1.5846,1.5887,1.5924,1.5883,1.5953,1.5955,1.5936,1.5992,1.5989,1.6041,1.5978,1.5979,1.598,0,1.5283,1.5338,1.543,1.5496,1.552,1.5564,1.5627,1.5675,1.5732,1.5754,1.5798,1.582,1.588,1.5866,1.595,1.5921,1.5952,1.5976,1.5979,1.5986,1.5969,1.5999,1.6059,1.6066,1.5993,1.5992,1.5991,0,1.5301,1.5399,1.5465,1.5494,1.5574,1.5604,1.5638,1.5694,1.5731,1.5786,1.581,1.5871,1.5904,1.5951,1.5988,1.5975,1.6068,1.6057,1.6087,1.6086,1.6104,1.6102,1.6168,1.6126,1.6126,1.6126,1.6126,0,1.5359,1.5413,1.5474,1.5515,1.5577,1.5617,1.5676,1.5712,1.5761,1.5809,1.5835,1.5879,1.5927,1.5977,1.6007,1.607,1.6086,1.6104,1.6111,1.6101,1.6099,1.6121,1.6118,1.6128,1.6128,1.6127,1.6127,0,1.5389,1.5432,1.5506,1.5575,1.5593,1.5635,1.5694,1.5734,1.5769,1.5829,1.5845,1.5899,1.5959,1.6002,1.608,1.61,1.6168,1.6175,1.6148,1.6151,1.6178,1.6174,1.626,1.6272,1.6222,1.6223,1.6223,0,1.5422,1.5465,1.5538,1.5571,1.5606,1.566,1.5698,1.5739,1.5777,1.5845,1.5876,1.5939,1.599,1.6085,1.6131,1.619,1.6199,1.6224,1.6208,1.6196,1.6197,1.6194,1.6197,1.6227,1.6227,1.6227,1.6227,0,1.5476,1.5495,1.5549,1.561,1.5654,1.5704,1.5754,1.578,1.583,1.5871,1.5933,1.5973,1.6052,1.6113,1.6176,1.6211,1.6227,1.6232,1.6242,1.6232,1.6214,1.6222,1.6153,1.623,1.623,1.623,1.6229,1.6229,1.5508,1.5547,1.5604,1.5662,1.5704,1.575,1.5791,1.583,1.5883,1.595,1.5971,1.6035,1.609,1.6177,1.6213,1.6263,1.6261,1.6275,1.6279,1.6281,1.628,1.6207,1.6274,1.6274,1.6274,1.6274,1.6274,0,1.5562,1.56,1.5654,1.5723,1.5768,1.578,1.5836,1.5873,1.5929,1.5979,1.6029,1.61,1.6159,1.6209,1.627,1.63,1.6309,1.6314,1.6312,1.6319,1.6279,1.6264,1.6306,1.6306,1.6306,1.6306,1.6306,1.6306,1.5596,1.5661,1.5687,1.5772,1.581,1.5873,1.5903,1.5945,1.5985,1.6063,1.6112,1.6144,1.6194,1.6259,1.6313,1.6326,1.6347,1.635,1.6365,1.6326,1.6322,1.6319,1.6305,1.6355,1.6355,1.6401,1.6402,1.6402]},{"header":{"parameterUnit":"m.s-1","parameterCategory":1,"la1":30.2991,"la2":30.254,"lo1":-89.0895,"lo2":-89.0444,"dx":0.0017,"dy":0.0017,"nx":28,"ny":28,"refTime":"2023-02-12T09:00:00:Z","depth":0,"parameterNumber":3,"parameterNumberName":"V-component_of_WINDS"},"data":[0,0,0,0,0,0,0,0,0,0,0,0,0,0,0,0,0,0,0,0,0,0,0,0,0,0,0,0,0,0,0,0,0,0,0,0,0,0,0,0,0,0,0,0,0,0,0,0,0,0,0,0,0,0,0,0,0,0,3.1451,3.1451,0,3.1432,3.1432,3.1432,3.1402,3.1401,3.14,3.14,3.138,3.138,3.138,0,0,0,0,0,0,0,0,0,0,0,0,0,3.146,3.146,3.1451,3.1451,3.1451,3.1432,3.1432,3.1432,3.1402,3.1401,3.14,3.14,3.138,3.138,3.138,0,0,0,0,0,0,0,0,0,0,0,0,0,3.145,3.146,3.1451,3.1433,3.1432,3.1432,3.1432,3.1432,3.1402,3.1401,3.14,3.1399,3.138,3.138,3.138,3.1396,0,0,3.138,3.138,0,0,0,0,0,0,0,0,3.1451,3.145,3.1436,3.1435,3.1433,3.1418,3.1428,3.142,3.1402,3.1413,3.14,3.1399,3.1393,3.1392,3.139,3.1395,3.1394,3.138,3.138,3.138,3.138,0,0,0,0,0,0,0,3.1451,3.145,3.1444,3.1436,3.1434,3.1426,3.1424,3.1426,3.1408,3.1412,3.141,3.1408,3.1392,3.139,3.139,3.1394,3.138,3.138,3.138,3.138,3.1409,3.141,0,0,0,0,0,0,3.1455,3.1451,3.1444,3.1443,3.144,3.1426,3.1424,3.1424,3.1408,3.1405,3.1409,3.1407,3.1391,3.139,3.1389,3.1405,3.138,3.138,3.138,3.1408,3.1409,3.141,0,0,0,0,0,0,3.1455,3.1454,3.1445,3.1446,3.1445,3.1427,3.1427,3.1424,3.1422,3.1405,3.1402,3.141,3.139,3.1389,3.1394,3.1404,3.138,3.138,3.1407,3.1408,3.1409,3.1439,0,0,0,0,0,0,3.1455,3.1455,3.1461,3.1447,3.1445,3.1451,3.1428,3.1424,3.1422,3.1419,3.1406,3.1403,3.1389,3.1394,3.1394,3.1404,3.1379,3.1406,3.1408,3.1409,3.1437,3.1441,3.1445,0,0,0,0,0,3.1456,3.147,3.1462,3.1461,3.1452,3.1452,3.145,3.1435,3.1423,3.1429,3.1418,3.1403,3.1403,3.1395,3.1394,3.1404,3.1405,3.1407,3.1409,3.1436,3.1441,3.1445,0,0,0,0,0,0,3.1486,3.1468,3.1458,3.1469,3.1462,3.1447,3.1454,3.1441,3.1437,3.1434,3.1415,3.1412,3.1419,3.1412,3.1404,3.1418,3.1402,3.1404,3.1422,3.1427,3.1431,3.1432,3.1379,0,0,0,0,0,3.1494,3.1496,3.148,3.149,3.1488,3.1471,3.147,3.1459,3.1451,3.1448,3.1437,3.143,3.1428,3.1427,3.1425,3.1436,3.1432,3.1443,3.1447,3.145,3.1451,3.1455,3.146,3.1416,3.1416,3.1416,0,0,3.1511,3.1501,3.1503,3.1496,3.149,3.1491,3.1469,3.1472,3.1472,3.1448,3.1452,3.1444,3.1435,3.1443,3.1446,3.1437,3.1462,3.1452,3.1455,3.1454,3.1458,3.1462,3.1466,3.1417,3.1417,3.1417,0,0,3.1541,3.1534,3.1542,3.1536,3.1526,3.1515,3.1517,3.1503,3.1497,3.1501,3.1482,3.1482,3.148,3.1473,3.147,3.1496,3.1482,3.1496,3.1516,3.152,3.1523,3.1526,3.1535,3.1538,3.1498,3.1498,3.1498,0,3.1563,3.1564,3.1548,3.1551,3.1548,3.1526,3.1533,3.1528,3.1518,3.1516,3.1507,3.1502,3.1494,3.15,3.1506,3.1504,3.1505,3.1497,3.1524,3.1527,3.153,3.1537,3.1541,3.15,3.15,3.1499,3.1499,0,3.1591,3.1592,3.1599,3.159,3.1587,3.1593,3.1576,3.1576,3.1564,3.1554,3.1557,3.1547,3.1541,3.1542,3.1531,3.1546,3.154,3.1528,3.1511,3.1536,3.1543,3.1546,3.1502,3.1501,3.1501,3.1501,0,0,3.164,3.162,3.1623,3.1618,3.1605,3.1606,3.161,3.1604,3.1604,3.1597,3.1599,3.1597,3.1585,3.1581,3.1569,3.1573,3.1593,3.156,3.1559,3.1565,3.1607,3.1616,3.162,3.1584,3.1585,3.1585,3.1608,0,3.1666,3.1672,3.1657,3.1666,3.1666,3.1645,3.1649,3.1641,3.1631,3.1629,3.1618,3.1617,3.1602,3.1599,3.1602,3.159,3.1601,3.1588,3.1585,3.1585,3.1587,3.1623,3.1633,3.1655,3.161,3.1611,3.1611,0,3.1699,3.1694,3.1703,3.1689,3.1688,3.1691,3.1684,3.1683,3.1674,3.1666,3.1661,3.1647,3.1649,3.1633,3.1634,3.1626,3.1623,3.1617,3.1618,3.1616,3.1599,3.1622,3.1662,3.1665,3.1615,3.1615,3.1615,0,3.1732,3.1728,3.1732,3.1729,3.1713,3.1715,3.1708,3.1698,3.1695,3.1689,3.1687,3.1681,3.1678,3.1673,3.1657,3.1647,3.166,3.1643,3.1653,3.1653,3.1656,3.1656,3.1695,3.1656,3.1656,3.1656,3.1656,0,3.1763,3.1769,3.1747,3.175,3.1756,3.1738,3.1744,3.1735,3.1726,3.1726,3.1707,3.1708,3.1687,3.1685,3.1673,3.1675,3.1674,3.1667,3.1663,3.1668,3.1669,3.1666,3.1663,3.1657,3.1657,3.1656,3.1656,0,3.1801,3.1787,3.179,3.1774,3.177,3.1775,3.1761,3.1763,3.1752,3.1752,3.1751,3.1733,3.173,3.1714,3.1706,3.1698,3.1704,3.1697,3.1707,3.1705,3.1715,3.1713,3.1752,3.1756,3.1716,3.1716,3.1717,0,3.1822,3.1826,3.181,3.1809,3.1803,3.1802,3.1799,3.1781,3.1779,3.1767,3.177,3.1765,3.1759,3.1754,3.174,3.1734,3.1727,3.1741,3.1726,3.173,3.1726,3.1725,3.1725,3.1744,3.1744,3.1745,3.1745,0,3.1859,3.1851,3.1848,3.1842,3.1839,3.1833,3.1826,3.1826,3.1806,3.1804,3.18,3.1796,3.1788,3.1783,3.1774,3.1766,3.1752,3.175,3.1752,3.1756,3.1761,3.1757,3.1715,3.1749,3.1749,3.1748,3.1748,3.1748,3.1888,3.189,3.1879,3.1876,3.1869,3.1863,3.1863,3.1852,3.1848,3.1841,3.183,3.1827,3.1816,3.1803,3.1796,3.1793,3.1785,3.1788,3.1788,3.1789,3.1791,3.1762,3.1791,3.1791,3.1791,3.1791,3.1791,0,3.1923,3.1915,3.1912,3.1903,3.19,3.1887,3.1879,3.1877,3.1875,3.1866,3.1861,3.1856,3.185,3.1836,3.1829,3.1829,3.1822,3.1827,3.1827,3.1825,3.1799,3.1798,3.1833,3.1833,3.1833,3.1833,3.1833,3.1833,3.1941,3.1944,3.1935,3.1934,3.1925,3.1922,3.1919,3.1912,3.1905,3.19,3.1896,3.1886,3.1875,3.1866,3.186,3.1856,3.1854,3.1861,3.1855,3.1831,3.1827,3.1823,3.1822,3.1861,3.1861,3.1881,3.1881,3.1881]}]]